This demonstration page uses our WeatherBlox Daily Observations layout. Learn more.

Left ArrowRight Arrow

39.08367, -84.50855

Hourly Observations for April 16, 2019

Temp ( °F °C ) Dew Point ( °F °C ) Humidity (%) Winds ( mph kmh ) Pressure ( in mb ) Visibility ( mi km ) Precip ( " mm )
12:53 am 00:53 Clear 40 4.4 34 1.1 79 79 Calm 30.17 1022 10 16.0934 0 0
1:53 am 01:53 Clear 42 5.6 34 1.1 73 73 S 5 7 30.16 1021 10 16.0934 0 0
2:53 am 02:53 Clear 41 5 34 1.1 76 76 SSW 5 7 30.16 1021 10 16.0934 0 0
3:53 am 03:53 Clear 40 4.4 34 1.1 79 79 SSW 5 7 30.15 1021 10 16.0934 0 0
4:53 am 04:53 Clear 40 4.4 34 1.1 79 79 Calm 30.16 1021 10 16.0934 0 0
5:53 am 05:53 Mostly Clear 38 3.3 35 1.7 89 89 Calm 30.17 1022 10 16.0934 0 0
6:53 am 06:53 Clear 37 2.8 34 1.1 89 89 Calm 30.17 1022 10 16.0934 0 0
7:53 am 07:53 Sunny 40 4.4 35 1.7 83 83 Calm 30.18 1022 10 16.0934 0 0
8:53 am 08:53 Sunny 45 7.2 37 2.8 74 74 S 7 11 30.17 1022 10 16.0934 0 0
9:53 am 09:53 Mostly Sunny 51 10.6 39 3.9 64 64 S 8 13 30.16 1022 10 16.0934 0 0
10:53 am 10:53 Mostly Sunny 58 14.4 41 5 53 53 S 12 19 30.14 1021 10 16.0934 0 0
11:53 am 11:53 Sunny 65 18.3 44 6.7 47 47 SSW 14 22 30.11 1020 10 16.0934 0 0
12:53 pm 12:53 Sunny 70 21.1 45 7.2 41 41 SW 14 22 30.08 1019 10 16.0934 0 0
1:53 pm 13:53 Sunny 70 21.1 47 8.3 44 44 SSW 17 28 30.05 1018 10 16.0934 0 0
2:53 pm 14:53 Sunny 73 22.8 47 8.3 40 40 SW 16 26 30.03 1017 10 16.0934 0 0
3:53 pm 15:53 Sunny 75 23.9 48 8.9 39 39 WSW 20 31 30 1016 10 16.0934 0 0
4:53 pm 16:53 Sunny 75 23.9 48 8.9 39 39 SSW 20 31 29.97 1015 10 16.0934 0 0
5:53 pm 17:53 Sunny 75 23.9 48 8.9 39 39 SSW 15 24 29.96 1015 10 16.0934 0 0
6:53 pm 18:53 Sunny 73 22.8 47 8.3 40 40 SSW 14 22 29.96 1015 10 16.0934 0 0
7:53 pm 19:53 Sunny 69 20.6 48 8.9 47 47 SSW 9 15 29.96 1015 10 16.0934 0 0
8:53 pm 20:53 Clear 63 17.2 48 8.9 58 58 S 3 6 29.98 1015 10 16.0934 0 0
9:53 pm 21:53 Clear 60 15.6 51 10.6 72 72 Calm 29.99 1016 10 16.0934 0 0
10:53 pm 22:53 Clear 57 13.9 51 10.6 81 81 Calm 30 1016 10 16.0934 0 0
11:53 pm 23:53 Clear 54 12.2 48 8.9 80 80 SSW 3 6 30.01 1016 10 16.0934 0 0

Powered by AerisWeather